Sigfox identifier Datetime Temperature Humidity SNR
002F2020 2019-06-03 16:31:10 18.8 45 16.5
002F2020 2019-06-03 15:24:31 18.2 46 16.3
002F2020 2019-06-03 14:17:48 17.3 46 16.4
002F2020 2019-06-03 13:11:06 16.3 47 16.5
002F2020 2019-06-03 12:04:22 14.8 49 16.2
002F2020 2019-06-03 10:57:37 12.9 46 16.2
002F2020 2019-06-03 09:50:48 11.5 45 15.8
002F2020 2019-06-03 08:43:57 10.7 43 15.8
002F2020 2019-06-03 07:37:07 10.3 41 15.5
002F2020 2019-06-03 06:30:16 10.7 40 15.6
002F2020 2019-06-03 05:23:27 11.6 40 15.5
002F2020 2019-06-03 04:16:38 12.6 40 15.1
002F2020 2019-06-03 03:09:53 13.7 41 15.1
002F2020 2019-06-03 02:03:12 14.8 41 15.1
002F2020 2019-06-03 00:56:28 16 42 15.1
002F2020 2019-06-02 23:49:47 17.1 44 15
002F2020 2019-06-02 22:43:08 17.9 45 15.1
002F2020 2019-06-02 21:36:30 18.2 47 14.9
002F2020 2019-06-02 20:29:53 18.1 47 14.8
002F2020 2019-06-02 19:23:15 17.5 47 14.8
002F2020 2019-06-02 18:16:36 16.5 46 14.7
002F2020 2019-06-02 17:09:56 15.4 45 15.4
002F2020 2019-06-02 16:03:14 14.2 44 15.5
002F2020 2019-06-02 14:56:31 13.5 43 15.9
002F2020 2019-06-02 13:49:45 13 42 16.3
002F2020 2019-06-02 12:43:00 13 42 16.9
002F2020 2019-06-02 11:36:15 13 41 17
002F2020 2019-06-02 10:29:30 12.8 41 17.3
002F2020 2019-06-02 09:22:45 12.8 41 17.7
002F2020 2019-06-02 08:16:00 12.8 40 17.7
002F2020 2019-06-02 07:09:16 12.8 40 18.2
002F2020 2019-06-02 06:02:30 13 39 18.7
002F2020 2019-06-02 04:55:44 13.3 39 18.8
002F2020 2019-06-02 03:48:58 13.7 38 19
002F2020 2019-06-02 02:42:14 13.9 38 19.2
002F2020 2019-06-02 01:35:31 14.5 37 19.2
002F2020 2019-06-02 00:28:49 15.4 37 19.3
002F2020 2019-06-01 23:22:07 16.1 37 19.4
002F2020 2019-06-01 22:15:26 16.9 37 19.5
002F2020 2019-06-01 21:08:47 17.9 37 19.7
002F2020 2019-06-01 20:02:07 18.7 38 19.7
002F2020 2019-06-01 18:55:28 19 39 19.9
002F2020 2019-06-01 17:48:49 19.1 39 20.1
002F2020 2019-06-01 16:42:11 19 39 20.6
002F2020 2019-06-01 15:35:33 18.8 39 21.1
002F2020 2019-06-01 14:28:54 18.2 38 21.6
002F2020 2019-06-01 13:22:12 17.8 37 21.9
002F2020 2019-06-01 12:15:30 17.5 36 22.4
002F2020 2019-06-01 11:08:50 17.8 35 22.5
002F2020 2019-06-01 10:02:10 18 34 22.8
002F2020 2019-06-01 08:55:31 18.8 34 23.2
002F2020 2019-06-01 07:48:53 19 34 23.5
002F2020 2019-06-01 06:42:17 19 34 23.7
002F2020 2019-06-01 05:35:42 19 33 23.7
002F2020 2019-06-01 04:29:07 19 33 24.1
002F2020 2019-06-01 03:22:29 19.1 33 24.2
002F2020 2019-06-01 02:15:52 19.2 33 24.3
002F2020 2019-06-01 01:09:17 19.2 33 24.6
002F2020 2019-06-01 00:02:40 19.2 33 24.6
002F2020 2019-05-31 22:56:05 19.5 32 24.6
002F2020 2019-05-31 21:49:32 19.9 33 24.9
002F2020 2019-05-31 20:42:53 20.1 34 25.2
002F2020 2019-05-31 19:36:17 20.1 35 25.3
002F2020 2019-05-31 18:29:41 20.3 35 25.4
002F2020 2019-05-31 17:23:07 21 35 25.6
002F2020 2019-05-31 16:16:35 21.4 38 25.8
002F2020 2019-05-31 15:10:04 21.1 38 26
002F2020 2019-05-31 14:03:31 21.2 38 26.2
002F2020 2019-05-31 12:56:57 21.2 39 26.3
002F2020 2019-05-31 11:50:25 21.1 38 26.4
002F2020 2019-05-31 10:43:51 21 38 26.5
002F2020 2019-05-31 09:37:18 21 38 26.4
002F2020 2019-05-31 08:30:44 20.8 38 26.2
002F2020 2019-05-31 07:24:12 20.7 38 26.5
002F2020 2019-05-31 06:17:39 20.8 38 26.4
002F2020 2019-05-31 05:11:06 20.7 38 26.3
002F2020 2019-05-31 04:04:34 20.7 39 26.2
002F2020 2019-05-31 02:58:01 20.7 39 26.2
002F2020 2019-05-31 01:51:26 20.7 39 26.2
002F2020 2019-05-31 00:44:52 20.7 39 26.2
002F2020 2019-05-30 23:38:16 20.7 40 26.2
002F2020 2019-05-30 22:31:43 20.6 40 26.2
002F2020 2019-05-30 21:25:08 20.5 40 26.2
002F2020 2019-05-30 20:18:31 20.5 40 26.2
002F2020 2019-05-30 19:11:57 20.5 41 26.3
002F2020 2019-05-30 18:05:20 20.5 41 26.3
002F2020 2019-05-30 16:58:45 20.5 41 26.3
002F2020 2019-05-30 15:52:08 20.5 41 26.4
002F2020 2019-05-30 14:45:32 20.5 42 26.5
002F2020 2019-05-30 13:38:55 20.7 42 26.5
002F2020 2019-05-30 12:32:20 20.7 42 26.4
002F2020 2019-05-30 11:25:46 20.7 43 26.2
002F2020 2019-05-30 10:19:12 20.7 43 26.2
002F2020 2019-05-30 09:12:38 20.7 43 26.1
002F2020 2019-05-30 08:06:00 20.7 44 26
002F2020 2019-05-30 06:59:25 20.7 44 25.9
002F2020 2019-05-30 05:52:50 20.9 44 25.9
002F2020 2019-05-30 04:46:14 21 45 26.1
002F2020 2019-05-30 03:39:40 21 45 26.1
002F2020 2019-05-30 02:33:05 21 45 26.2
002F2020 2019-05-30 01:26:32 21 46 26.2
002F2020 2019-05-30 00:19:56 21.1 46 26.4
002F2020 2019-05-29 23:13:22 21.1 47 26.3
002F2020 2019-05-29 22:06:48 21.2 47 26.5
002F2020 2019-05-29 21:00:12 21.2 48 26.4
002F2020 2019-05-29 19:53:37 21.2 48 26.4
002F2020 2019-05-29 18:47:02 21.2 48 26.4
002F2020 2019-05-29 17:40:26 21.4 49 26.5
002F2020 2019-05-29 16:33:51 21.4 49 26.3
002F2020 2019-05-29 15:27:17 21.2 48 26.2
002F2020 2019-05-29 14:20:42 21.2 48 26
002F2020 2019-05-29 13:14:08 21.2 48 25.8
002F2020 2019-05-29 12:07:32 21.2 48 25.5
002F2020 2019-05-29 11:00:57 21.2 47 25.3
002F2020 2019-05-29 09:54:21 21.2 47 25.1
002F2020 2019-05-29 08:47:45 21.2 47 25
002F2020 2019-05-29 07:41:07 21.2 47 24.9
002F2020 2019-05-29 06:34:29 21.2 47 24.6
002F2020 2019-05-29 05:27:52 21.2 47 24.5
002F2020 2019-05-29 04:21:16 21.2 46 24.2
002F2020 2019-05-29 03:14:39 21.2 46 24
002F2020 2019-05-29 02:08:03 21.3 46 23.8
002F2020 2019-05-29 01:01:27 21.2 46 23.3
002F2020 2019-05-28 23:54:50 21.3 46 22.8
002F2020 2019-05-28 22:48:14 21.3 46 22.5
002F2020 2019-05-28 21:41:36 21.3 46 21.3
002F2020 2019-05-28 20:35:00 21.3 46 21
002F2020 2019-05-28 19:28:24 21.3 46 20.1
002F2020 2019-05-28 18:21:49 21.2 46 19.6
002F2020 2019-05-28 17:15:14 21.2 46 19.2
002F2020 2019-05-28 16:08:40 21.2 46 17.9
002F2020 2019-05-28 15:02:08 21.2 45 16.2
002F2020 2019-05-28 13:55:38 21.1 45 16.4
002F2020 2019-05-28 12:49:03 21 45 16.5
002F2020 2019-05-28 10:35:57 21 44 16.2
002F2020 2019-05-28 09:29:23 21 44 16.4
002F2020 2019-05-28 08:22:49 21 44 16.1
002F2020 2019-05-28 07:16:15 21.1 44 16
002F2020 2019-05-28 06:09:39 21.2 44 15.6
002F2020 2019-05-28 05:03:03 21.2 44 15.9
002F2020 2019-05-28 03:56:28 21.2 44 15.4
002F2020 2019-05-28 02:49:52 21.2 44 15.1
002F2020 2019-05-28 01:43:17 21.2 44 15.3
002F2020 2019-05-28 00:36:44 21.2 44 15.7
002F2020 2019-05-27 23:30:06 21.2 44 15.6
002F2020 2019-05-27 22:23:32 21.2 45 16
002F2020 2019-05-27 21:17:00 21.2 45 15.4
002F2020 2019-05-27 20:10:23 21.2 45 15.8
002F2020 2019-05-27 19:03:48 21.2 45 15.4
002F2020 2019-05-27 17:57:11 21.3 45 14.8
002F2020 2019-05-27 16:50:35 21.4 46 14.8
002F2020 2019-05-27 15:43:59 21.5 46 12.4
002F2020 2019-05-27 14:37:22 21.2 56 0